sat.trackr.live / text

‹ back to catalog

STARLINK-33959

NORAD 63817 · 2025-092P

PAYLOAD ACTIVE UNKNOWN

§ Identity

Operator
Country
US
Launch date
2025-05-04
Launch site
AFETR
Launch vehicle
Mass (kg)
RCS (m²)

Purposes: comms

External: N2YO · Heavens-Above · Gunter

§ Orbital elements

Epoch: 2026-09-20T04:12:43.420320Z

Period
94.27 min
Inclination
43.0014°
Eccentricity
0.0001369
Mean motion
15.27579746 rev/d
Perigee alt
482.1 km
Apogee alt
484.0 km
Semi-major
6,861.2 km
B*
2.1071e-4
RAAN
153.7668°
Arg perigee
271.2314°
Mean anomaly
88.8381°
Rev number
7,841

§ Raw data

STARLINK-339591 63817U 25092P   26263.17550255  .00005541  00000+0  21071-3 0  99902 63817  43.0014 153.7668 0001369 271.2314  88.8381 15.27579746 78413

JSON: /api/v1/satellites/63817 · /tle

For live sub-satellite position, see the globe view (requires WebGL).

§ Visibility from observer

Set your observer location to see the next 7 days of passes ≥ 10°. The values pass through the URL so the page stays shareable.

No JS? Fill the form by hand. The geolocation button needs JavaScript.